Content
SEND FEEDBACK

Daily
Averages
Monthly
Summary
United States of America

DES PLAINES, ILLINOIS


Home > North America > United States > Illinois
Elevation: 651 feet     Latitude: 42 00N     Longitude: 087 54W

WEATHER
 
SELECT A DAY
Number of Records: 194,860;   Date Range: 7/8/95 - 7/26/14
 
SHARE

PRINT THIS DATA

[ ← Previous Day ]
WEATHER ALMANAC - AUGUST 25, 2013
[ Next Day → ]
[ °C ]   °F
Weather ElementAverageHighLow
Temperature79.6 °F90 °F (2:52 pm)66 °F (4:52 am)
Dewpoint61.6 °F66.9 °F (4:52 pm)53.1 °F (5:52 am)
Humidity54.5 %65 % (4:52 am)45 % (2:52 pm)
Barometer30.20 in30.26 in (7:52 am)30.14 in (6:52 pm)
Wind Speed7.7 mph15 mph (5:52 pm)
Wind Gust20.7 mph (5:52 pm)
Weather ElementAverage
Visibility10 mi
Wind DirectionSSW (197.4 °)

Weather ElementTotal
Precipitation---
Cooling Degree Days13 (Base 65)
Growing Degree Days28 (Base 50)
Averaged from 23 records on August 25, 2013
WEATHER CONDITIONS BREAKOUT
WIND DIRECTION BREAKOUT
WEATHER BY HOUR - AUGUST 25, 2013
[ °C ]   °F
Local TimeTemperatureDewpointHumidityBarometerVisibilityWind DirectionWind SpeedGust SpeedPrecipitationEventsConditions
1:52 AM68.0 °F55.0 °F63 %30.23 in10.0 miSouth (180°)5.8 mphClear
2:52 AM68.0 °F55.0 °F63 %30.23 in10.0 miCalmClear
3:52 AM66.9 °F54.0 °F63 %30.23 in10.0 miSouth (180°)4.6 mphClear
4:52 AM66.0 °F54.0 °F65 %30.23 in10.0 miSouth (180°)4.6 mphClear
5:52 AM66.0 °F53.1 °F63 %30.24 in10.0 miCalmClear
6:52 AM70.0 °F54.0 °F57 %30.25 in10.0 miSSW (210°)5.8 mphClear
7:52 AM72.0 °F55.9 °F57 %30.26 in10.0 miSSW (200°)4.6 mphClear
8:52 AM77.0 °F57.9 °F52 %30.26 in10.0 miSSW (200°)8.1 mphClear
9:52 AM81.0 °F60.1 °F49 %30.25 in10.0 miWSW (240°)10.4 mph16.1 mphClear
10:52 AM84.9 °F63.0 °F48 %30.24 in10.0 miWSW (240°)9.2 mphClear
11:52 AM86.0 °F64.0 °F48 %30.23 in10.0 miWSW (250°)10.4 mph19.6 mphClear
12:52 PM88.0 °F64.9 °F46 %30.21 in10.0 miSW (220°)11.5 mphClear
1:52 PM89.1 °F66.0 °F46 %30.20 in10.0 miWSW (250°)8.1 mph17.3 mphClear
2:52 PM90.0 °F66.0 °F45 %30.18 in10.0 miWSW (240°)9.2 mph19.6 mphClear
3:52 PM90.0 °F66.0 °F45 %30.17 in10.0 miWSW (250°)10.4 mph18.4 mphClear
4:52 PM89.1 °F66.9 °F48 %30.15 in10.0 miSW (230°)9.2 mphClear
5:52 PM88.0 °F66.9 °F49 %30.15 in10.0 miSSW (200°)15.0 mph20.7 mphClear
6:52 PM86.0 °F66.9 °F53 %30.14 in10.0 miSSW (210°)9.2 mphClear
7:52 PM82.9 °F66.0 °F56 %30.15 in10.0 miSSW (210°)9.2 mphClear
8:52 PM82.0 °F66.0 °F58 %30.16 in10.0 miSSW (210°)6.9 mphClear
9:52 PM81.0 °F66.0 °F60 %30.17 in10.0 miSSW (210°)10.4 mphClear
10:52 PM80.1 °F64.9 °F60 %30.17 in10.0 miSSW (210°)6.9 mphClear
11:52 PM79.0 °F64.0 °F60 %30.16 in10.0 miSW (220°)8.1 mphClear
Hourly data recorded from KPWK, located miles away from Des Plaines, Illinois







STORIES FROM OUR PARTNERS